EW5962 Weather Reports


Display with metric or nautical units.
time (UTC)temp
F
wind
direction
speed
MPH
gust
MPH
rain 1hr
in
rain 24hr
in
rain mn
in
humidity
%
barometer
mb
20260904201015 99 198 0.0 7.0 0.00 0.00 0.00 45 1011.2
20260904200514 100 165 0.0 6.0 0.00 0.00 0.00 45 1011.2
20260904200039 100 229 0.0 1.0 0.00 0.00 0.00 44 1011.2
20260904195606 100 229 0.0 5.0 0.00 0.00 0.00 43 1011.3
20260904195106 100 164 1.0 8.0 0.00 0.00 0.00 44 1011.4
20260904194617 100 240 1.0 8.0 0.00 0.00 0.00 44 1011.4
20260904194010 99 195 0.0 3.0 0.00 0.00 0.00 44 1011.7
20260904193511 99 198 0.0 4.0 0.00 0.00 0.00 47 1011.8
20260904193017 98 228 0.0 4.0 0.00 0.00 0.00 50 1011.9
20260904192519 98 185 0.0 4.0 0.00 0.00 0.00 48 1012.0
20260904192016 98 219 0.0 4.0 0.00 0.00 0.00 49 1012.1
20260904191603 98 183 0.0 5.0 0.00 0.00 0.00 47 1012.2
20260904191103 98 168 2.0 6.0 0.00 0.00 0.00 47 1012.3
20260904190503 98 276 1.0 6.0 0.00 0.00 0.00 48 1012.3
20260904190010 97 183 0.0 5.0 0.00 0.00 0.00 49 1012.6
20260904185511 97 179 0.0 5.0 0.00 0.00 0.00 50 1012.6
20260904185023 97 174 0.0 3.0 0.00 0.00 0.00 48 1012.7
20260904184503 97 198 0.0 0.0 0.00 0.00 0.00 48 1012.7
20260904184011 98 188 0.0 0.0 0.00 0.00 0.00 47 1012.8
20260904183516 98 217 0.0 0.0 0.00 0.00 0.00 47 1012.9
20260904183023 97 188 0.0 0.0 0.00 0.00 0.00 50 1013.0
20260904182503 97 239 0.0 1.0 0.00 0.00 0.00 50 1013.1
20260904182011 97 179 0.0 1.0 0.00 0.00 0.00 52 1013.0
20260904181520 97 202 0.0 2.0 0.00 0.00 0.00 52 1013.0
20260904181023 97 158 0.0 2.0 0.00 0.00 0.00 52 1013.1
20260904180505 96 340 0.0 1.0 0.00 0.00 0.00 52 1013.2
20260904180019 95 344 0.0 1.0 0.00 0.00 0.00 52 1013.3
20260904175524 94 350 0.0 1.0 0.00 0.00 0.00 52 1013.3
20260904175003 94 216 0.0 1.0 0.00 0.00 0.00 52 1013.4
20260904174510 95 192 0.0 1.0 0.00 0.00 0.00 52 1013.4
20260904174011 96 219 0.0 0.0 0.00 0.00 0.00 51 1013.4
20260904173514 97 288 0.0 0.0 0.00 0.00 0.00 52 1013.5
20260904173021 97 295 0.0 0.0 0.00 0.00 0.00 52 1013.6
20260904172504 97 49 0.0 4.0 0.00 0.00 0.00 52 1013.6
20260904172013 97 202 0.0 0.0 0.00 0.00 0.00 51 1013.7
20260904171522 98 28 0.0 0.0 0.00 0.00 0.00 51 1013.6
20260904171002 97 25 0.0 1.0 0.00 0.00 0.00 53 1013.7
20260904170513 96 295 0.0 1.0 0.00 0.00 0.00 53 1013.7
20260904170002 96 207 0.0 4.0 0.00 0.00 0.00 55 1013.8
20260904165509 95 308 0.0 4.0 0.00 0.00 0.00 55 1013.9
20260904165103 95 25 0.0 1.0 0.00 0.00 0.00 56 1013.9
20260904164503 94 152 0.0 1.0 0.00 0.00 0.00 58 1014.0
20260904164015 94 176 0.0 6.0 0.00 0.00 0.00 60 1014.1
20260904163516 93 191 1.0 6.0 0.00 0.00 0.00 59 1014.2
20260904163016 93 233 0.0 1.0 0.00 0.00 0.00 60 1014.3
20260904162518 93 150 0.0 7.0 0.00 0.00 0.00 60 1014.3
20260904162008 93 186 1.0 7.0 0.00 0.00 0.00 60 1014.4
20260904161610 93 192 0.0 1.0 0.00 0.00 0.00 61 1014.5
20260904161003 92 162 0.0 5.0 0.00 0.00 0.00 61 1014.5
20260904160511 92 158 0.0 5.0 0.00 0.00 0.00 62 1014.5
20260904160115 92 205 0.0 3.0 0.00 0.00 0.00 65 1014.6
20260904155504 91 201 0.0 2.0 0.00 0.00 0.00 65 1014.7
20260904155008 91 172 0.0 2.0 0.00 0.00 0.00 64 1014.6
20260904154604 91 170 0.0 3.0 0.00 0.00 0.00 65 1014.7
20260904154003 91 153 0.0 3.0 0.00 0.00 0.00 65 1014.7
20260904153510 90 188 0.0 1.0 0.00 0.00 0.00 67 1014.7
20260904153130 90 161 0.0 1.0 0.00 0.00 0.00 69 1014.7
20260904152503 89 60 0.0 0.0 0.00 0.00 0.00 68 1014.6
20260904152009 88 348 0.0 0.0 0.00 0.00 0.00 72 1014.7
20260904151609 88 176 0.0 0.0 0.00 0.00 0.00 70 1014.7
20260904151003 87 155 0.0 1.0 0.00 0.00 0.00 72 1014.6
20260904150510 87 181 0.0 1.0 0.00 0.00 0.00 72 1014.7
20260904150105 86 181 0.0 1.0 0.00 0.00 0.00 75 1014.6
20260904145504 85 200 0.0 1.0 0.00 0.00 0.00 74 1014.7
20260904145008 85 213 0.0 2.0 0.00 0.00 0.00 75 1014.6
20260904144505 84 183 0.0 1.0 0.00 0.00 0.00 75 1014.8
20260904144010 84 206 0.0 0.0 0.00 0.00 0.00 78 1014.9
20260904143515 83 171 0.0 0.0 0.00 0.00 0.00 79 1015.0
20260904143019 83 152 0.0 0.0 0.00 0.00 0.00 80 1015.1
20260904142604 82 122 0.0 0.0 0.00 0.00 0.00 80 1015.1
20260904142004 82 169 0.0 1.0 0.00 0.00 0.00 81 1015.0
20260904141510 82 160 0.0 0.0 0.00 0.00 0.00 82 1015.0
20260904141103 81 160 0.0 1.0 0.00 0.00 0.00 83 1015.0
20260904140503 81 180 0.0 1.0 0.00 0.00 0.00 83 1015.0
20260904140009 80 36 0.0 0.0 0.00 0.00 0.00 83 1015.0
20260904135605 80 167 0.0 0.0 0.00 0.00 0.00 84 1015.0
20260904135003 79 220 0.0 1.0 0.00 0.00 0.00 86 1015.0
20260904134509 79 176 0.0 0.0 0.00 0.00 0.00 87 1014.9
20260904134102 78 2 0.0 0.0 0.00 0.00 0.00 87 1014.9
20260904133502 78 155 0.0 0.0 0.00 0.00 0.00 91 1014.9
20260904133010 77 155 0.0 1.0 0.00 0.00 0.00 89 1015.0
20260904132604 77 169 0.0 1.0 0.00 0.00 0.00 91 1015.0
20260904132003 76 155 0.0 1.0 0.00 0.00 0.00 92 1015.0
20260904131509 76 193 0.0 0.0 0.00 0.00 0.00 94 1015.1
20260904131102 75 349 0.0 0.0 0.00 0.00 0.00 95 1015.1
20260904130502 75 172 0.0 0.0 0.00 0.00 0.00 95 1015.1
20260904130015 75 175 0.0 0.0 0.00 0.00 0.00 95 1015.0
20260904125603 74 35 0.0 0.0 0.00 0.00 0.00 96 1015.1
20260904125005 74 187 0.0 0.0 0.00 0.00 0.00 96 1015.1
20260904124509 73 183 0.0 0.0 0.00 0.00 0.00 97 1015.1
20260904124102 73 165 0.0 0.0 0.00 0.00 0.00 96 1015.0
20260904123603 73 188 0.0 0.0 0.00 0.00 0.00 96 1015.0
20260904123006 73 188 0.0 0.0 0.00 0.00 0.00 96 1015.0
20260904122514 73 182 0.0 0.0 0.00 0.00 0.00 96 1015.1
20260904122018 72 183 0.0 0.0 0.00 0.00 0.00 97 1015.1
20260904121603 72 183 0.0 0.0 0.00 0.00 0.00 96 1015.1
20260904121003 72 183 0.0 0.0 0.00 0.00 0.00 96 1015.1
20260904120603 72 183 0.0 0.0 0.00 0.00 0.00 96 1015.0
20260904120002 72 183 0.0 0.0 0.00 0.00 0.00 96 1015.0
20260904115509 72 183 0.0 0.0 0.00 0.00 0.00 96 1014.9
20260904115103 72 183 0.0 0.0 0.00 0.00 0.00 96 1014.8
20260904114504 72 183 0.0 0.0 0.00 0.00 0.00 96 1014.8
20260904114009 72 183 0.0 0.0 0.00 0.00 0.00 96 1014.8
20260904113604 72 183 0.0 0.0 0.00 0.00 0.00 96 1014.8
20260904113002 72 183 0.0 0.0 0.00 0.00 0.00 96 1014.8
20260904112509 72 183 0.0 0.0 0.00 0.00 0.00 95 1014.7
20260904112103 72 183 0.0 0.0 0.00 0.00 0.00 95 1014.7
20260904111505 72 183 0.0 0.0 0.00 0.00 0.00 95 1014.8
20260904111009 72 183 0.0 0.0 0.00 0.00 0.00 95 1014.7
20260904110603 72 183 0.0 0.0 0.00 0.00 0.00 95 1014.8
20260904110003 72 183 0.0 0.0 0.00 0.00 0.00 95 1014.8
20260904105509 72 183 0.0 0.0 0.00 0.00 0.00 95 1014.8
20260904105103 72 183 0.0 0.0 0.00 0.00 0.00 95 1014.7
20260904104503 72 183 0.0 0.0 0.00 0.00 0.00 95 1014.6
20260904104009 72 183 0.0 0.0 0.00 0.00 0.00 95 1014.5
20260904103602 72 183 0.0 0.0 0.00 0.00 0.00 95 1014.5
20260904103002 72 183 0.0 0.0 0.00 0.00 0.00 95 1014.5
20260904102511 72 183 0.0 0.0 0.00 0.00 0.00 95 1014.5
20260904102102 72 183 0.0 0.0 0.00 0.00 0.00 95 1014.5
20260904101505 73 183 0.0 0.0 0.00 0.00 0.00 95 1014.5
20260904101008 73 183 0.0 0.0 0.00 0.00 0.00 94 1014.5
20260904100603 73 183 0.0 0.0 0.00 0.00 0.00 94 1014.5
20260904100003 73 183 0.0 0.0 0.00 0.00 0.00 94 1014.4
20260904095509 73 183 0.0 0.0 0.00 0.00 0.00 94 1014.4
20260904095107 73 183 0.0 0.0 0.00 0.00 0.00 94 1014.4
20260904094506 73 183 0.0 0.0 0.00 0.00 0.00 94 1014.4
20260904094009 73 183 0.0 0.0 0.00 0.00 0.00 94 1014.4
20260904093003 73 183 0.0 0.0 0.00 0.00 0.00 94 1014.2
20260904092511 73 183 0.0 0.0 0.00 0.00 0.00 94 1014.1
20260904092103 73 183 0.0 0.0 0.00 0.00 0.00 94 1014.1
20260904091503 73 183 0.0 0.0 0.00 0.00 0.00 94 1014.0
20260904091011 73 183 0.0 0.0 0.00 0.00 0.00 94 1013.9
20260904090602 73 183 0.0 0.0 0.00 0.00 0.00 94 1013.9
20260904090004 73 181 0.0 0.0 0.00 0.00 0.00 94 1013.8
20260904085513 73 184 0.0 0.0 0.00 0.00 0.00 94 1013.7
20260904085103 73 188 0.0 0.0 0.00 0.00 0.00 94 1013.7
20260904084503 73 188 0.0 0.0 0.00 0.00 0.00 94 1013.7
20260904084008 73 188 0.0 0.0 0.00 0.00 0.00 94 1013.6
20260904083606 73 183 0.0 0.0 0.00 0.00 0.00 94 1013.6
20260904083002 73 176 0.0 0.0 0.00 0.00 0.00 94 1013.6
20260904082509 73 176 0.0 0.0 0.00 0.00 0.00 94 1013.5
20260904082103 73 176 0.0 0.0 0.00 0.00 0.00 94 1013.5
20260904081507 73 176 0.0 0.0 0.00 0.00 0.00 94 1013.5
20260904081010 73 176 0.0 0.0 0.00 0.00 0.00 94 1013.5
20260904080602 73 176 0.0 0.0 0.00 0.00 0.00 94 1013.6
20260904080004 73 176 0.0 0.0 0.00 0.00 0.00 94 1013.6
20260904075509 73 176 0.0 0.0 0.00 0.00 0.00 94 1013.7
20260904075103 73 176 0.0 0.0 0.00 0.00 0.00 94 1013.7
20260904074502 74 176 0.0 0.0 0.00 0.00 0.00 94 1013.7
20260904074009 74 176 0.0 0.0 0.00 0.00 0.00 94 1013.8
20260904073605 74 176 0.0 0.0 0.00 0.00 0.00 94 1013.9
20260904073013 74 176 0.0 0.0 0.00 0.00 0.00 93 1013.9
20260904072510 74 176 0.0 0.0 0.00 0.00 0.00 93 1013.9
20260904072103 74 176 0.0 0.0 0.00 0.00 0.00 93 1013.9
20260904071503 74 176 0.0 0.0 0.00 0.00 0.00 93 1013.9
20260904071009 74 176 0.0 0.0 0.00 0.00 0.00 93 1014.0
20260904070603 74 176 0.0 0.0 0.00 0.00 0.00 93 1014.0
20260904070007 74 176 0.0 0.0 0.00 0.00 0.00 93 1014.1
20260904065512 74 176 0.0 0.0 0.00 0.00 0.00 93 1014.1
20260904065103 74 176 0.0 0.0 0.00 0.00 0.00 93 1014.1
20260904064510 74 176 0.0 0.0 0.00 0.00 0.00 93 1014.2
20260904064009 74 176 0.0 0.0 0.00 0.00 0.00 93 1014.3
20260904063603 74 176 0.0 0.0 0.00 0.00 0.00 93 1014.3
20260904063003 74 176 0.0 0.0 0.00 0.00 0.00 93 1014.4
20260904062511 74 176 0.0 0.0 0.00 0.00 0.00 93 1014.4
20260904062103 74 176 0.0 0.0 0.00 0.00 0.00 93 1014.5
20260904061503 75 176 0.0 0.0 0.00 0.00 0.00 93 1014.6
20260904061009 75 176 0.0 0.0 0.00 0.00 0.00 93 1014.6
20260904060602 75 176 0.0 0.0 0.00 0.00 0.00 93 1014.6
20260904060002 75 176 0.0 0.0 0.00 0.00 0.00 93 1014.7
20260904055510 75 176 0.0 0.0 0.00 0.00 0.00 93 1014.8
20260904055105 75 176 0.0 0.0 0.00 0.00 0.00 93 1014.8
20260904054506 75 176 0.0 0.0 0.00 0.00 0.00 93 1014.8
20260904054009 75 176 0.0 0.0 0.00 0.00 0.00 93 1014.9
20260904053602 75 176 0.0 0.0 0.00 0.00 0.00 93 1014.9
20260904053003 75 176 0.0 0.0 0.00 0.00 0.00 93 1015.0
20260904052509 75 176 0.0 0.0 0.00 0.00 0.00 93 1014.9
20260904052104 75 176 0.0 0.0 0.00 0.00 0.00 93 1015.0
20260904051503 75 176 0.0 0.0 0.00 0.00 0.00 93 1015.1
20260904051008 75 176 0.0 0.0 0.00 0.00 0.00 93 1015.1
20260904050603 75 176 0.0 0.0 0.00 0.00 0.00 93 1015.2
20260904050003 75 176 0.0 0.0 0.00 0.00 0.00 93 1015.2
20260904045509 75 176 0.0 0.0 0.00 0.00 0.00 93 1015.2
20260904045104 75 176 0.0 0.0 0.00 0.00 0.00 93 1015.2
20260904044506 75 176 0.0 0.0 0.00 0.00 0.00 93 1015.0
20260904044009 75 176 0.0 0.0 0.00 0.00 0.00 93 1015.1
20260904043603 75 176 0.0 0.0 0.00 0.00 0.00 92 1015.1
20260904043002 75 176 0.0 0.0 0.00 0.00 0.00 92 1015.0
20260904042509 75 176 0.0 0.0 0.00 0.00 0.00 92 1015.0
20260904042104 75 176 0.0 0.0 0.00 0.00 0.00 92 1014.9
20260904041503 75 176 0.0 0.0 0.00 0.00 0.00 92 1014.9
20260904041002 75 176 0.0 0.0 0.00 0.00 0.00 92 1015.0
20260904040502 75 176 0.0 0.0 0.00 0.00 0.00 91 1014.9
20260904040009 75 176 0.0 0.0 0.00 0.00 0.00 91 1014.8
20260904035603 75 176 0.0 0.0 0.00 0.00 0.00 91 1014.8
20260904035002 75 176 0.0 0.0 0.00 0.00 0.00 91 1014.8
20260904034509 75 176 0.0 0.0 0.00 0.00 0.00 91 1014.8
20260904034102 76 176 0.0 0.0 0.00 0.00 0.00 91 1014.8
20260904033503 76 176 0.0 0.0 0.00 0.00 0.00 91 1014.9
20260904033015 76 176 0.0 0.0 0.00 0.00 0.00 91 1014.9
20260904032604 76 176 0.0 0.0 0.00 0.00 0.00 91 1014.9
20260904032002 76 176 0.0 0.0 0.00 0.00 0.00 91 1014.8
20260904031508 76 176 0.0 0.0 0.00 0.00 0.00 91 1014.9
20260904031103 76 176 0.0 0.0 0.00 0.00 0.00 90 1014.8
20260904030503 76 176 0.0 0.0 0.00 0.00 0.00 90 1014.9
20260904030010 76 176 0.0 0.0 0.00 0.00 0.00 90 1014.9
20260904025603 77 176 0.0 0.0 0.00 0.00 0.00 90 1014.8
20260904025002 77 176 0.0 0.0 0.00 0.00 0.00 90 1014.8
20260904024509 77 176 0.0 0.0 0.00 0.00 0.00 89 1014.9
20260904024103 77 176 0.0 0.0 0.00 0.00 0.00 89 1015.0
20260904023502 77 176 0.0 0.0 0.00 0.00 0.00 89 1015.0
20260904023009 77 176 0.0 0.0 0.00 0.00 0.00 89 1014.9
20260904022603 77 176 0.0 0.0 0.00 0.00 0.00 88 1015.0
20260904022002 77 176 0.0 0.0 0.00 0.00 0.00 88 1015.1
20260904021511 78 176 0.0 0.0 0.00 0.00 0.00 88 1015.1
20260904021103 78 176 0.0 0.0 0.00 0.00 0.00 88 1015.1
20260904020503 78 176 0.0 0.0 0.00 0.00 0.00 87 1015.0
20260904020009 78 176 0.0 0.0 0.00 0.00 0.00 87 1015.0
20260904015605 78 176 0.0 0.0 0.00 0.00 0.00 87 1015.0
20260904015004 78 176 0.0 0.0 0.00 0.00 0.00 86 1014.9
20260904014509 79 176 0.0 0.0 0.00 0.00 0.00 86 1014.8
20260904014104 79 176 0.0 0.0 0.00 0.00 0.00 86 1014.9
20260904013502 79 176 0.0 0.0 0.00 0.00 0.00 86 1014.9
20260904013016 79 176 0.0 0.0 0.00 0.00 0.00 85 1014.8
20260904012605 79 176 0.0 0.0 0.00 0.00 0.00 85 1014.7
20260904012004 80 176 0.0 0.0 0.00 0.00 0.00 85 1014.6
20260904011508 80 176 0.0 0.0 0.00 0.00 0.00 85 1014.5
20260904011104 80 176 0.0 0.0 0.00 0.00 0.00 84 1014.5
20260904010502 80 176 0.0 0.0 0.00 0.00 0.00 84 1014.4
20260904010008 80 176 0.0 0.0 0.00 0.00 0.00 84 1014.3
20260904005605 81 176 0.0 0.0 0.00 0.00 0.00 83 1014.2
20260904005002 81 176 0.0 0.0 0.00 0.00 0.00 83 1014.3
20260904004510 81 176 0.0 0.0 0.00 0.00 0.00 83 1014.0
20260904004104 81 176 0.0 0.0 0.00 0.00 0.00 82 1014.0
20260904003503 82 176 0.0 0.0 0.00 0.00 0.00 82 1013.9
20260904003015 82 176 0.0 0.0 0.00 0.00 0.00 81 1013.8
20260904002503 82 176 0.0 0.0 0.00 0.00 0.00 81 1013.7
20260904002008 83 176 0.0 0.0 0.00 0.00 0.00 80 1013.7
20260904001602 83 176 0.0 0.0 0.00 0.00 0.00 80 1013.7
20260904001002 84 176 0.0 0.0 0.00 0.00 0.00 79 1013.7
20260904000513 84 176 0.0 0.0 0.00 0.00 0.00 78 1013.6
20260903235501 85 176 0.0 0.0 0.00 0.00 0.00 76 1013.5
20260903235008 85 176 0.0 0.0 0.00 0.00 0.00 75 1013.4
20260903234613 85 176 0.0 0.0 0.00 0.00 0.00 75 1013.3
20260903234002 86 176 0.0 0.0 0.00 0.00 0.00 74 1013.3
20260903233511 86 176 0.0 0.0 0.00 0.00 0.00 72 1013.2
20260903233103 87 176 0.0 0.0 0.00 0.00 0.00 73 1013.2
20260903232504 87 176 0.0 0.0 0.00 0.00 0.00 72 1013.2
20260903232008 87 176 0.0 0.0 0.00 0.00 0.00 70 1013.2
20260903231604 88 176 0.0 0.0 0.00 0.00 0.00 69 1013.2
20260903231005 88 176 0.0 0.0 0.00 0.00 0.00 69 1013.2
20260903230508 88 176 0.0 0.0 0.00 0.00 0.00 69 1013.1
20260903230109 89 176 0.0 0.0 0.00 0.00 0.00 68 1013.1
20260903225503 89 176 0.0 0.0 0.00 0.00 0.00 68 1013.1
20260903225008 89 176 0.0 0.0 0.00 0.00 0.00 66 1013.1
20260903224607 90 98 0.0 0.0 0.00 0.00 0.00 64 1013.0
20260903224003 90 98 0.0 0.0 0.00 0.00 0.00 64 1013.1
20260903223508 90 98 0.0 0.0 0.00 0.00 0.00 64 1013.1
20260903223102 90 98 0.0 1.0 0.00 0.00 0.00 61 1013.1
20260903222504 91 94 0.0 1.0 0.00 0.00 0.00 61 1013.0
20260903222009 91 150 0.0 1.0 0.00 0.00 0.00 57 1013.1
20260903221603 91 148 0.0 1.0 0.00 0.00 0.00 59 1013.2
20260903221004 91 203 0.0 0.0 0.00 0.00 0.00 60 1013.1
20260903220512 91 203 0.0 0.0 0.00 0.00 0.00 61 1013.2
20260903220108 91 203 0.0 0.0 0.00 0.00 0.00 61 1013.2
20260903215503 91 203 0.0 0.0 0.00 0.00 0.00 61 1013.2
20260903215009 92 203 0.0 1.0 0.00 0.00 0.00 62 1013.3
20260903214605 92 203 0.0 1.0 0.00 0.00 0.00 59 1013.3
20260903214002 93 203 0.0 1.0 0.00 0.00 0.00 56 1013.4
20260903213508 93 203 0.0 1.0 0.00 0.00 0.00 59 1013.3
20260903213102 94 203 0.0 1.0 0.00 0.00 0.00 55 1013.3
20260903212504 94 203 0.0 0.0 0.00 0.00 0.00 54 1013.3
20260903212010 94 203 0.0 0.0 0.00 0.00 0.00 55 1013.3
20260903211602 95 203 0.0 0.0 0.00 0.00 0.00 54 1013.3
20260903211002 95 203 0.0 0.0 0.00 0.00 0.00 52 1013.4
20260903210509 95 203 0.0 4.0 0.00 0.00 0.00 50 1013.4
20260903210104 95 203 0.0 4.0 0.00 0.00 0.00 50 1013.4
20260903205502 96 236 0.0 4.0 0.00 0.00 0.00 50 1013.4
20260903205009 96 204 0.0 1.0 0.00 0.00 0.00 59 1013.5
20260903204607 95 204 0.0 2.0 0.00 0.00 0.00 54 1013.5
20260903204003 95 213 0.0 0.0 0.00 0.00 0.00 59 1013.4
20260903203524 95 213 0.0 0.0 0.00 0.00 0.00 58 1013.5
20260903203102 95 229 0.0 0.0 0.00 0.00 0.00 57 1013.5
20260903202503 95 229 0.0 0.0 0.00 0.00 0.00 57 1013.5
20260903202105 95 206 0.0 0.0 0.00 0.00 0.00 52 1013.5
20260903201502 96 176 0.0 0.0 0.00 0.00 0.00 53 1013.7